Regional Weather Roundup
Issued by NWS Sioux Falls, SD

Home | Current Version | Previous Version | Text Only | Print | Product List | Glossary On
Versions: 1 2 3 4 5 6 7 8 9 10 11 12 13 14 15 16 17 18 19 20 21 22 23 24 25 26 27 28 29 30 31 32 33 34 35 36 37 38 39 40 41 42 43 44 45 46 47 48 49 50
000
ASUS43 KFSD 300210
RWRFSD

WEATHER ROUNDUP FOR SE SOUTH DAKOTA/SW MINNESOTA/NW IOWA
NATIONAL WEATHER SERVICE SIOUX FALLS SD
900 PM CDT TUE JUL 29 2014

NOTE: "FAIR" INDICATES FEW OR NO CLOUDS BELOW 12,000 FEET WITH NO
SIGNIFICANT WEATHER AND OR OBSTRUCTIONS TO VISIBILITY.


SDZ038>040-050-052>070-300300-
SOUTHEAST SOUTH DAKOTA

CITY           SKY/WX    TMP DP  RH WIND       PRES   REMARKS
CHAMBERLAIN    PTCLDY    71  53  53 CALM      30.13R
HURON          CLEAR     70  54  56 NE5       30.10S
MADISON        FAIR      64  57  77 CALM      30.13S
MITCHELL       CLEAR     73  54  51 N5        30.11S
SIOUX FALLS    PTCLDY    67  54  63 NW5       30.11F
WINNER         FAIR      75  51  43 CALM      30.14S
YANKTON        CLEAR     70  55  60 SE3       30.12S
$$

MNZ071-072-080-081-089-090-097-098-300300-
SOUTHWEST MINNESOTA

CITY           SKY/WX    TMP DP  RH WIND       PRES   REMARKS
FAIRMONT       CLEAR     66  52  59 NW5       30.09S
JACKSON        CLEAR     63  57  82 CALM      30.11S
LUVERNE        CLEAR     66  57  72 CALM      30.12S
MARSHALL       CLEAR     68  55  64 NW6       30.09F
MONTEVIDEO     CLEAR     68  54  60 CALM      30.10S
PIPESTONE      CLEAR     70  54  56 N5        30.13R
REDWOOD FALLS  CLEAR     68  54  60 NW5       30.08S
TRACY          CLEAR     66  57  73 CALM      30.11S
WINDOM         CLEAR     64  57  77 NW5       30.11R
WORTHINGTON    PTCLDY    64  57  77 NW3       30.13S
$$

IAZ001>003-012>014-020>022-031-032-NEZ013-014-SDZ071-300300-
NORTHWEST IOWA

CITY           SKY/WX    TMP DP  RH WIND       PRES   REMARKS
CHEROKEE       CLEAR     65  56  72 CALM      30.11S
DENISON        CLEAR     66  57  72 CALM      30.09S
ESTHERVILLE    CLEAR     63  58  83 W5        30.10S HAZE
LE MARS          N/A     64  61  88 CALM      30.12S
ORANGE CITY    CLEAR     66  55  68 CALM      30.12S
SHELDON        CLEAR     63  59  88 CALM      30.11S
SIOUX CITY     CLEAR     67  56  67 CALM      30.11S
SPENCER        CLEAR     64  59  83 NW5       30.10F
STORM LAKE     CLEAR     64  55  72 NW5       30.12S
$$

ABBREVIATIONS USED IN REMARKS
   TC - TEMPERATURE IN CELSIUS
  WCI - WIND CHILL INDEX
   HX - HEAT INDEX
  VSB - VISIBILITY




USA.gov is the U.S. government's official web portal to all federal, state and local government web resources and services.